Preview of NWS' New Version of Forecast
This preview is not operational and should not be used for support decisions.

Regional Weather Roundup (RWR)

Issued by National Weather Service (NWS)

                            
000
ASUS45 KCYS 170610
RWRWY 

WYOMING REGIONAL WEATHER ROUNDUP
NATIONAL WEATHER SERVICE CHEYENNE WY
1200 AM MDT SAT AUG 17 2019

NOTE:  "FAIR" INDICATES FEW OR NO CLOUDS BELOW 12,000 FEET
WITH NO SIGNIFICANT WEATHER AND/OR OBSTRUCTIONS TO VISIBILITY.

WYZ001-170700-
...YELLOWSTONE NATIONAL PARK...
  
CITY           SKY/WX    TMP DP  RH WIND       PRES   REMARKS
LK YELLOWSTONE   N/A     43  38  82 CALM      30.14S                  
6HR MIN TEMP:  43; 6HR MAX TEMP:  65;                                

W YELLOWSTONE  NOT AVBL                                               

$$
WYZ002>013-054>058-071-098>099-170700-
...NORTHERN WYOMING...
  
CITY           SKY/WX    TMP DP  RH WIND       PRES   REMARKS
JACKSON        CLEAR     54  33  45 SW5       30.07S                  
CODY           MOCLDY    60  44  55 CALM      29.96S                  
GREYBULL       PTCLDY    67  40  37 W3        29.86S                  
6HR MIN TEMP:  66; 6HR MAX TEMP:  85;                                

WORLAND        CLEAR     58  46  64 CALM      29.88R                  
6HR MIN TEMP:  56; 6HR MAX TEMP:  81;                                

SHERIDAN       PTCLDY    54  46  74 CALM      29.90S                  
6HR MIN TEMP:  54; 6HR MAX TEMP:  83;                                

BUFFALO        PTCLDY    58  43  57 SW9       29.97S                  
6HR MIN TEMP:  57; 6HR MAX TEMP:  77;                                

GILLETTE       PTCLDY    56  47  71 S5        29.93R                  
6HR MIN TEMP:  53; 6HR MAX TEMP:  80;                                

HULETT         FAIR      59  43  55 S9        29.93R                  
NEWCASTLE      MOCLDY    63  46  55 E3        29.93F                  

$$
WYZ014>020-022>026-101>103-170700-
...CENTRAL WYOMING...
  
CITY           SKY/WX    TMP DP  RH WIND       PRES   REMARKS
BIG PINEY      PTCLDY    45  27  49 NW7       30.13R                  
6HR MIN TEMP:  43; 6HR MAX TEMP:  76;                                

PINEDALE       CLEAR     43  32  65 CALM      30.14R                  
DUBOIS         FAIR      50  30  46 W8        30.10S                  
LANDER         CLEAR     63  24  22 W10       29.99F                  
6HR MIN TEMP:  63; 6HR MAX TEMP:  84;                                

RIVERTON       CLEAR     62  35  36 NW8       29.98S                  
6HR MIN TEMP:  61; 6HR MAX TEMP:  83;                                

CASPER         PTCLDY    55  36  48 NW10      29.95S                  
6HR MIN TEMP:  55; 6HR MAX TEMP:  84;                                

DOUGLAS        PTCLDY    62  54  74 SE6       29.94F                  
6HR MIN TEMP:  62; 6HR MAX TEMP:  84;                                


$$
WYZ021-027>030-104>119-170700-
...SOUTHERN WYOMING...
  
CITY           SKY/WX    TMP DP  RH WIND       PRES   REMARKS
EVANSTON       CLEAR     62  31  31 NE3       30.12S                  
6HR MIN TEMP:  59; 6HR MAX TEMP:  76;                                

KEMMERER       CLEAR     55  28  35 NW7       30.14S                  
FORT BRIDGER   NOT AVBL                                               
ROCK SPRINGS   CLEAR     58  29  33 S5        30.09S                  
6HR MIN TEMP:  58; 6HR MAX TEMP:  79;                                

DIXON          FAIR      52  27  37 E12       30.12S                  
RAWLINS        CLEAR     65  25  22 NW18      30.05F                  
6HR MIN TEMP:  65; 6HR MAX TEMP:  81;                                

SARATOGA       FAIR      61  28  29 SW12      30.11S                  
LARAMIE        CLEAR     56  35  45 SW13      30.09S                  
6HR MIN TEMP:  56; 6HR MAX TEMP:  74;                                

CHEYENNE       CLEAR     65  36  34 CALM      30.02S                  
6HR MIN TEMP:  63; 6HR MAX TEMP:  80;                                

TORRINGTON     CLEAR     61  59  93 E9        29.89F                  
6HR MIN TEMP:  61; 6HR MAX TEMP:  81; 6HR PCP:  0.03;                

PINE BLUFFS    FAIR      59  54  82 SW9       29.97F                  

$$